Location: Eboldshausen
(51.7766°N, 10.0050°E)
Time: 15:56:52
(UTC+00:00)

Aureole 3 Rocket - Pass Details

Date: 15 November 2025
Orbit: 398 x 1690 km, 82.5° (Epoch: 12 December)

Event Time Altitude Azimuth Distance (km) Brightness Sun altitude
Rises 18:11:48 0° 211° (SSW) 2,335 6.4 -24.9°
Reaches altitude 10° 18:13:55 10° 222° (SW) 1,451 5.5 -25.2°
Enters shadow 18:15:58 28° 260° (W) 798 4.3 -25.5°
